GW3448 Weather Reports


Display with metric or nautical units.
time (UTC)temp
F
wind
direction
speed
MPH
gust
MPH
rain 1hr
in
rain 24hr
in
rain mn
in
humidity
%
barometer
mb
20260503221923 86 32 4.0 8.0 0.00 0.00 0.00 26 1009.4
20260503221820 86 26 3.0 6.0 0.00 0.00 0.00 26 1009.3
20260503221724 86 352 2.0 6.0 0.00 0.00 0.00 28 1009.4
20260503221619 86 348 2.0 6.0 0.00 0.00 0.00 26 1009.4
20260503221519 86 333 2.0 6.0 0.00 0.00 0.00 26 1009.4
20260503221417 87 344 4.0 6.0 0.00 0.00 0.00 27 1009.4
20260503221317 87 352 3.0 6.0 0.00 0.00 0.00 27 1009.4
20260503221216 87 329 3.0 6.0 0.00 0.00 0.00 27 1009.5
20260503221146 87 269 2.0 5.0 0.00 0.00 0.00 27 1009.5
20260503221059 87 281 1.0 5.0 0.00 0.00 0.00 27 1009.4
20260503221048 87 352 1.0 5.0 0.00 0.00 0.00 27 1009.4
20260503220714 87 72 2.0 5.0 0.00 0.00 0.00 27 1009.5
20260503220645 87 29 2.0 5.0 0.00 0.00 0.00 27 1009.5
20260503220632 87 350 2.0 5.0 0.00 0.00 0.00 28 1009.5
20260503220310 86 345 3.0 5.0 0.00 0.00 0.00 28 1009.5
20260503220208 86 13 3.0 5.0 0.00 0.00 0.00 29 1009.6
20260503220114 87 333 2.0 5.0 0.00 0.00 0.00 28 1009.6
20260503220059 87 346 2.0 5.0 0.00 0.00 0.00 27 1009.5
20260503220048 87 276 2.0 5.0 0.00 0.00 0.00 27 1009.5
20260503215706 86 303 1.0 5.0 0.00 0.00 0.00 30 1009.6
20260503215605 86 352 1.0 5.0 0.00 0.00 0.00 29 1009.6
20260503215503 86 261 1.0 5.0 0.00 0.00 0.00 28 1009.7
20260503215407 86 258 2.0 5.0 0.00 0.00 0.00 29 1009.6
20260503215304 86 226 2.0 5.0 0.00 0.00 0.00 28 1009.6
20260503215202 86 162 1.0 5.0 0.00 0.00 0.00 28 1009.7
20260503215135 85 221 2.0 4.0 0.00 0.00 0.00 28 1009.6
20260503215122 85 352 2.0 5.0 0.00 0.00 0.00 29 1009.7
20260503214801 85 350 2.0 5.0 0.00 0.00 0.00 29 1009.8
20260503214703 85 132 2.0 5.0 0.00 0.00 0.00 28 1009.8
20260503214601 85 339 2.0 6.0 0.00 0.00 0.00 29 1009.8
20260503214504 85 78 1.0 7.0 0.00 0.00 0.00 28 1009.9
20260503214403 85 154 2.0 7.0 0.00 0.00 0.00 27 1009.9
20260503214306 86 74 3.0 7.0 0.00 0.00 0.00 27 1009.9
20260503214201 86 88 2.0 7.0 0.00 0.00 0.00 27 1009.9
20260503214104 86 88 3.0 7.0 0.00 0.00 0.00 29 1009.9
20260503214001 86 95 3.0 7.0 0.00 0.00 0.00 28 1009.9
20260503213903 86 81 3.0 7.0 0.00 0.00 0.00 28 1010.1
20260503213801 86 59 4.0 7.0 0.00 0.00 0.00 30 1010.1
20260503213703 86 30 4.0 7.0 0.00 0.00 0.00 29 1010.1
20260503213601 86 0 2.0 7.0 0.00 0.00 0.00 29 1010.1
20260503213503 86 340 2.0 5.0 0.00 0.00 0.00 29 1010.1
20260503213405 86 55 2.0 5.0 0.00 0.00 0.00 30 1010.1
20260503213334 86 348 2.0 5.0 0.00 0.00 0.00 30 1010.1
20260503213321 86 342 1.0 5.0 0.00 0.00 0.00 30 1010.1
20260503213001 86 250 1.0 5.0 0.00 0.00 0.00 29 1010.1
20260503212902 86 352 2.0 5.0 0.00 0.00 0.00 30 1010.2
20260503212801 86 22 2.0 5.0 0.00 0.00 0.00 30 1010.1
20260503212734 86 333 2.0 5.0 0.00 0.00 0.00 31 1010.2
20260503212723 86 338 2.0 5.0 0.00 0.00 0.00 30 1010.2
20260503212402 86 304 2.0 5.0 0.00 0.00 0.00 30 1010.2
20260503212305 86 5 2.0 5.0 0.00 0.00 0.00 28 1010.3
20260503212201 86 348 2.0 5.0 0.00 0.00 0.00 27 1010.2
20260503212135 86 25 3.0 5.0 0.00 0.00 0.00 30 1010.3
20260503212122 85 22 3.0 5.0 0.00 0.00 0.00 29 1010.3
20260503211805 85 340 2.0 4.0 0.00 0.00 0.00 30 1010.3
20260503211726 86 269 2.0 4.0 0.00 0.00 0.00 28 1010.3
20260503211714 86 281 2.0 4.0 0.00 0.00 0.00 29 1010.3
20260503211704 86 290 2.0 4.0 0.00 0.00 0.00 28 1010.3
20260503211421 86 279 2.0 4.0 0.00 0.00 0.00 31 1010.4
20260503211139 85 224 2.0 5.0 0.00 0.00 0.00 30 1010.4
20260503211125 85 273 2.0 5.0 0.00 0.00 0.00 29 1010.4
20260503211114 85 246 1.0 8.0 0.00 0.00 0.00 29 1010.5
20260503211049 85 239 1.0 8.0 0.00 0.00 0.00 29 1010.4
20260503211008 85 180 1.0 8.0 0.00 0.00 0.00 28 1010.5
20260503210956 84 167 2.0 8.0 0.00 0.00 0.00 29 1010.5
20260503210945 84 97 2.0 8.0 0.00 0.00 0.00 28 1010.5
20260503210704 85 17 2.0 8.0 0.00 0.00 0.00 29 1010.6
20260503205948 85 11 2.0 6.0 0.00 0.00 0.00 30 1010.5
20260503205924 84 55 2.0 6.0 0.00 0.00 0.00 28 1010.6
20260503205601 84 89 1.0 5.0 0.00 0.00 0.00 31 1010.6
20260503205505 84 331 2.0 5.0 0.00 0.00 0.00 30 1010.6
20260503205404 84 273 2.0 5.0 0.00 0.00 0.00 31 1010.6
20260503205337 84 290 2.0 5.0 0.00 0.00 0.00 30 1010.6
20260503205323 84 322 2.0 5.0 0.00 0.00 0.00 31 1010.7
20260503204959 84 5 2.0 5.0 0.00 0.00 0.00 32 1010.7
20260503204924 84 329 3.0 5.0 0.00 0.00 0.00 30 1010.7
20260503204859 84 327 4.0 5.0 0.00 0.00 0.00 32 1010.7
20260503204848 84 289 3.0 5.0 0.00 0.00 0.00 32 1010.7
20260503204616 85 328 2.0 4.0 0.00 0.00 0.00 30 1010.7
20260503204258 84 54 1.0 3.0 0.00 0.00 0.00 31 1010.8
20260503204154 84 257 1.0 3.0 0.00 0.00 0.00 31 1010.8
20260503204056 84 268 1.0 3.0 0.00 0.00 0.00 31 1010.8
20260503203954 84 277 1.0 6.0 0.00 0.00 0.00 31 1010.8
20260503203858 84 60 1.0 6.0 0.00 0.00 0.00 32 1010.8
20260503203755 83 82 1.0 6.0 0.00 0.00 0.00 32 1010.8
20260503203648 83 160 1.0 6.0 0.00 0.00 0.00 33 1010.8
20260503203546 83 74 2.0 6.0 0.00 0.00 0.00 32 1010.8
20260503203445 83 82 2.0 6.0 0.00 0.00 0.00 32 1010.8
20260503203345 83 75 2.0 6.0 0.00 0.00 0.00 32 1010.8
20260503203248 83 134 3.0 6.0 0.00 0.00 0.00 32 1010.8
20260503203143 83 141 3.0 6.0 0.00 0.00 0.00 31 1010.8
20260503203049 83 157 2.0 6.0 0.00 0.00 0.00 32 1010.8
20260503203033 83 166 2.0 5.0 0.00 0.00 0.00 32 1010.9
20260503203022 83 253 2.0 6.0 0.00 0.00 0.00 32 1010.9
20260503202958 83 186 2.0 6.0 0.00 0.00 0.00 33 1010.9
20260503202947 83 236 2.0 6.0 0.00 0.00 0.00 33 1010.9
20260503202935 83 263 2.0 6.0 0.00 0.00 0.00 34 1010.9
20260503202703 82 242 1.0 6.0 0.00 0.00 0.00 34 1011.0
20260503202202 82 236 3.0 6.0 0.00 0.00 0.00 33 1011.0
20260503201838 82 263 2.0 8.0 0.00 0.00 0.00 34 1011.0
20260503201734 82 254 2.0 8.0 0.00 0.00 0.00 32 1011.0
20260503201635 82 304 2.0 8.0 0.00 0.00 0.00 33 1011.1
20260503201532 82 325 2.0 8.0 0.00 0.00 0.00 34 1011.1
20260503201516 82 344 2.0 8.0 0.00 0.00 0.00 33 1011.1
20260503201504 82 30 4.0 8.0 0.00 0.00 0.00 35 1011.1
20260503201130 82 17 3.0 8.0 0.00 0.00 0.00 33 1011.1
20260503201032 82 0 4.0 8.0 0.00 0.00 0.00 35 1011.2
20260503200930 82 305 4.0 8.0 0.00 0.00 0.00 35 1011.1
20260503200834 82 300 3.0 5.0 0.00 0.00 0.00 34 1011.1
20260503200729 82 244 3.0 6.0 0.00 0.00 0.00 35 1011.1
20260503200630 82 349 2.0 6.0 0.00 0.00 0.00 35 1011.1
20260503200530 82 59 1.0 6.0 0.00 0.00 0.00 35 1011.2
20260503200431 82 233 1.0 6.0 0.00 0.00 0.00 34 1011.2
20260503200330 82 317 2.0 6.0 0.00 0.00 0.00 36 1011.2
20260503200234 82 307 2.0 6.0 0.00 0.00 0.00 33 1011.2
20260503200130 82 254 1.0 6.0 0.00 0.00 0.00 33 1011.2
20260503200031 82 213 2.0 6.0 0.00 0.00 0.00 33 1011.2
20260503195929 82 153 2.0 6.0 0.00 0.00 0.00 34 1011.2
20260503195835 82 119 3.0 6.0 0.00 0.00 0.00 36 1011.2
20260503195801 82 81 2.0 5.0 0.00 0.00 0.00 34 1011.2
20260503195750 82 78 2.0 5.0 0.00 0.00 0.00 35 1011.3
20260503195434 82 77 3.0 5.0 0.00 0.00 0.00 34 1011.3
20260503195329 81 136 2.0 5.0 0.00 0.00 0.00 35 1011.3
20260503195232 81 51 2.0 5.0 0.00 0.00 0.00 35 1011.3
20260503195128 81 109 2.0 5.0 0.00 0.00 0.00 35 1011.3
20260503195033 81 96 1.0 5.0 0.00 0.00 0.00 35 1011.3
20260503194929 81 97 1.0 5.0 0.00 0.00 0.00 35 1011.4
20260503194829 81 138 2.0 5.0 0.00 0.00 0.00 35 1011.4
20260503194723 81 120 3.0 5.0 0.00 0.00 0.00 34 1011.3
20260503194623 81 69 2.0 5.0 0.00 0.00 0.00 34 1011.4
20260503194552 81 318 2.0 6.0 0.00 0.00 0.00 35 1011.5
20260503194541 81 46 2.0 6.0 0.00 0.00 0.00 34 1011.4
20260503194219 81 5 2.0 6.0 0.00 0.00 0.00 35 1011.5
20260503194119 81 317 3.0 6.0 0.00 0.00 0.00 34 1011.6
20260503194012 81 44 3.0 6.0 0.00 0.00 0.00 35 1011.6
20260503193910 81 301 2.0 6.0 0.00 0.00 0.00 34 1011.6
20260503193820 81 33 2.0 6.0 0.00 0.00 0.00 34 1011.6
20260503193709 81 309 3.0 6.0 0.00 0.00 0.00 35 1011.6
20260503193632 81 5 2.0 6.0 0.00 0.00 0.00 35 1011.6
20260503193618 80 23 1.0 4.0 0.00 0.00 0.00 37 1011.7
20260503193607 80 350 1.0 4.0 0.00 0.00 0.00 37 1011.7
20260503193553 80 316 1.0 4.0 0.00 0.00 0.00 36 1011.7
20260503193007 80 127 2.0 6.0 0.00 0.00 0.00 35 1011.7
20260503192905 80 5 2.0 6.0 0.00 0.00 0.00 37 1011.8
20260503192807 80 319 2.0 6.0 0.00 0.00 0.00 37 1011.8
20260503192602 80 278 2.0 6.0 0.00 0.00 0.00 38 1011.8
20260503192501 80 200 2.0 6.0 0.00 0.00 0.00 38 1011.8
20260503192400 80 246 3.0 6.0 0.00 0.00 0.00 38 1011.9
20260503192302 80 286 3.0 6.0 0.00 0.00 0.00 38 1011.9
20260503192202 80 338 2.0 5.0 0.00 0.00 0.00 37 1011.9
20260503192101 80 335 2.0 6.0 0.00 0.00 0.00 40 1011.9
20260503192001 80 338 2.0 7.0 0.00 0.00 0.00 38 1011.9
20260503191901 80 117 2.0 7.0 0.00 0.00 0.00 36 1012.0
20260503191803 80 153 2.0 7.0 0.00 0.00 0.00 36 1012.0
20260503191733 80 119 2.0 7.0 0.00 0.00 0.00 36 1012.0
20260503191721 79 65 3.0 7.0 0.00 0.00 0.00 37 1012.0
20260503191403 80 290 3.0 7.0 0.00 0.00 0.00 38 1012.1
20260503191301 79 343 4.0 7.0 0.00 0.00 0.00 37 1012.1
20260503191202 80 351 4.0 7.0 0.00 0.00 0.00 38 1012.1
20260503191130 80 329 3.0 7.0 0.00 0.00 0.00 38 1012.1
20260503191116 80 5 2.0 5.0 0.00 0.00 0.00 39 1012.1
20260503191054 79 311 2.0 5.0 0.00 0.00 0.00 38 1012.1
20260503191043 79 162 2.0 5.0 0.00 0.00 0.00 40 1012.1
20260503191030 79 263 2.0 7.0 0.00 0.00 0.00 39 1012.1
20260503190759 79 177 1.0 7.0 0.00 0.00 0.00 39 1012.2
20260503190736 79 352 2.0 7.0 0.00 0.00 0.00 38 1012.2
20260503190726 79 0 2.0 7.0 0.00 0.00 0.00 39 1012.2
20260503190643 78 12 2.0 7.0 0.00 0.00 0.00 39 1012.3
20260503185921 78 13 1.0 7.0 0.00 0.00 0.00 40 1012.3
20260503185603 78 260 1.0 7.0 0.00 0.00 0.00 42 1012.3
20260503185502 78 272 3.0 7.0 0.00 0.00 0.00 41 1012.3
20260503185402 78 267 4.0 7.0 0.00 0.00 0.00 40 1012.3
20260503185252 78 278 4.0 7.0 0.00 0.00 0.00 41 1012.3
20260503185151 78 253 3.0 6.0 0.00 0.00 0.00 41 1012.3
20260503185049 78 253 3.0 6.0 0.00 0.00 0.00 40 1012.3
20260503184948 78 294 3.0 5.0 0.00 0.00 0.00 41 1012.4
20260503184848 78 275 2.0 4.0 0.00 0.00 0.00 40 1012.4
20260503184747 78 286 2.0 4.0 0.00 0.00 0.00 40 1012.4
20260503184648 78 281 1.0 3.0 0.00 0.00 0.00 43 1012.4
20260503184547 78 234 1.0 7.0 0.00 0.00 0.00 43 1012.4
20260503184507 78 98 2.0 7.0 0.00 0.00 0.00 41 1012.4
20260503184440 77 227 1.0 7.0 0.00 0.00 0.00 43 1012.4
20260503184429 77 275 1.0 7.0 0.00 0.00 0.00 42 1012.4
20260503184415 77 38 1.0 8.0 0.00 0.00 0.00 41 1012.4
20260503184145 77 335 2.0 8.0 0.00 0.00 0.00 43 1012.5
20260503184121 77 346 3.0 8.0 0.00 0.00 0.00 42 1012.5
20260503184107 77 331 3.0 8.0 0.00 0.00 0.00 41 1012.5
20260503183616 76 262 4.0 8.0 0.00 0.00 0.00 46 1012.5
20260503183553 76 250 4.0 8.0 0.00 0.00 0.00 44 1012.5
20260503183540 76 332 2.0 6.0 0.00 0.00 0.00 45 1012.5
20260503183308 76 175 2.0 5.0 0.00 0.00 0.00 43 1012.5
20260503182954 76 111 2.0 5.0 0.00 0.00 0.00 44 1012.5
20260503182634 76 61 2.0 5.0 0.00 0.00 0.00 44 1012.6
20260503182532 76 92 2.0 6.0 0.00 0.00 0.00 44 1012.6
20260503182433 76 85 2.0 6.0 0.00 0.00 0.00 44 1012.6
20260503182332 76 5 2.0 6.0 0.00 0.00 0.00 45 1012.6
20260503182230 76 5 2.0 6.0 0.00 0.00 0.00 44 1012.6
20260503182130 76 299 2.0 6.0 0.00 0.00 0.00 45 1012.7
20260503182059 76 32 2.0 6.0 0.00 0.00 0.00 45 1012.6
20260503182046 76 344 2.0 6.0 0.00 0.00 0.00 44 1012.7
20260503182025 76 336 3.0 6.0 0.00 0.00 0.00 46 1012.7
20260503181752 75 352 3.0 6.0 0.00 0.00 0.00 45 1012.7
20260503181740 75 5 3.0 5.0 0.00 0.00 0.00 47 1012.8
20260503181730 75 346 2.0 5.0 0.00 0.00 0.00 46 1012.7
20260503181223 75 290 4.0 5.0 0.00 0.00 0.00 46 1012.7
20260503181212 75 294 2.0 5.0 0.00 0.00 0.00 46 1012.7
20260503180925 75 305 1.0 5.0 0.00 0.00 0.00 46 1012.8
20260503180912 74 257 1.0 5.0 0.00 0.00 0.00 45 1012.7
20260503180637 74 316 2.0 5.0 0.00 0.00 0.00 47 1012.8
20260503180627 74 303 2.0 5.0 0.00 0.00 0.00 46 1012.8
20260503180604 74 352 2.0 5.0 0.00 0.00 0.00 46 1012.7
20260503180329 74 350 3.0 5.0 0.00 0.00 0.00 47 1012.8
20260503180318 74 348 2.0 5.0 0.00 0.00 0.00 46 1012.8
20260503180306 74 312 2.0 4.0 0.00 0.00 0.00 48 1012.8
20260503180244 74 284 2.0 4.0 0.00 0.00 0.00 46 1012.8
20260503175944 74 259 2.0 5.0 0.00 0.00 0.00 47 1012.9
20260503175709 74 294 1.0 5.0 0.00 0.00 0.00 51 1012.9
20260503175431 73 350 2.0 5.0 0.00 0.00 0.00 48 1012.9
20260503175415 73 269 2.0 6.0 0.00 0.00 0.00 48 1012.8
20260503175405 73 98 2.0 6.0 0.00 0.00 0.00 48 1012.9
20260503175353 73 57 2.0 6.0 0.00 0.00 0.00 48 1012.8
20260503175331 73 32 2.0 6.0 0.00 0.00 0.00 48 1012.8
20260503174310 73 344 2.0 7.0 0.00 0.00 0.00 48 1012.9
20260503174210 73 242 2.0 7.0 0.00 0.00 0.00 49 1012.9
20260503174108 73 5 2.0 7.0 0.00 0.00 0.00 50 1012.9
20260503174051 73 330 2.0 7.0 0.00 0.00 0.00 49 1013.0
20260503174038 73 249 2.0 7.0 0.00 0.00 0.00 48 1012.9
20260503173707 73 302 4.0 7.0 0.00 0.00 0.00 49 1012.9
20260503173606 73 264 3.0 7.0 0.00 0.00 0.00 49 1012.9
20260503173505 73 263 3.0 7.0 0.00 0.00 0.00 50 1013.0
20260503173412 73 321 2.0 4.0 0.00 0.00 0.00 50 1013.0
20260503173343 72 341 1.0 4.0 0.00 0.00 0.00 50 1013.0
20260503173330 72 240 2.0 4.0 0.00 0.00 0.00 50 1013.0
20260503173317 72 184 2.0 4.0 0.00 0.00 0.00 50 1013.0
20260503173306 72 304 2.0 4.0 0.00 0.00 0.00 50 1013.0
20260503173254 72 312 2.0 4.0 0.00 0.00 0.00 51 1013.0
20260503173233 72 312 1.0 4.0 0.00 0.00 0.00 52 1013.0
20260503172402 71 350 2.0 5.0 0.00 0.00 0.00 51 1013.1
20260503172302 71 0 2.0 5.0 0.00 0.00 0.00 50 1013.1
20260503172206 71 352 2.0 5.0 0.00 0.00 0.00 50 1013.1
20260503172102 71 265 2.0 5.0 0.00 0.00 0.00 52 1013.1
20260503172002 71 284 1.0 5.0 0.00 0.00 0.00 52 1013.1
20260503171900 71 309 1.0 5.0 0.00 0.00 0.00 51 1013.1
20260503171803 71 313 2.0 5.0 0.00 0.00 0.00 51 1013.1
20260503171702 71 340 2.0 5.0 0.00 0.00 0.00 52 1013.1
20260503171603 71 36 2.0 5.0 0.00 0.00 0.00 52 1013.1
20260503171502 71 76 2.0 5.0 0.00 0.00 0.00 52 1013.1
20260503171419 71 29 1.0 5.0 0.00 0.00 0.00 54 1013.1
20260503171356 71 60 1.0 5.0 0.00 0.00 0.00 53 1013.1
20260503171345 70 37 1.0 6.0 0.00 0.00 0.00 53 1013.1
20260503171334 70 62 2.0 6.0 0.00 0.00 0.00 51 1013.1
20260503171321 70 55 2.0 6.0 0.00 0.00 0.00 51 1013.1
20260503171038 70 349 3.0 6.0 0.00 0.00 0.00 51 1013.2
20260503170809 70 0 3.0 6.0 0.00 0.00 0.00 51 1013.1
20260503170754 70 340 3.0 6.0 0.00 0.00 0.00 51 1013.1
20260503170205 70 325 2.0 5.0 0.00 0.00 0.00 51 1013.2
20260503150930 63 352 1.0 3.0 0.00 0.00 0.00 59 1013.2
20260503150828 63 351 1.0 3.0 0.00 0.00 0.00 59 1013.2
20260503150728 63 333 2.0 3.0 0.00 0.00 0.00 59 1013.2
20260503150622 63 333 2.0 3.0 0.00 0.00 0.00 59 1013.3
20260503150521 63 329 2.0 3.0 0.00 0.00 0.00 60 1013.3
20260503150419 63 350 1.0 3.0 0.00 0.00 0.00 59 1013.3
20260503150320 63 5 1.0 3.0 0.00 0.00 0.00 60 1013.3
20260503150212 63 336 1.0 2.0 0.00 0.00 0.00 59 1013.3
20260503150109 63 333 1.0 2.0 0.00 0.00 0.00 60 1013.3
20260503131401 51 176 0.0 0.0 0.00 0.00 0.00 79 1012.9
20260503131304 51 176 0.0 0.0 0.00 0.00 0.00 79 1012.9
20260503131231 51 176 0.0 0.0 0.00 0.00 0.00 79 1012.9
20260503131223 51 176 0.0 0.0 0.00 0.00 0.00 79 1013.0
20260503130905 51 176 0.0 0.0 0.00 0.00 0.00 79 1013.0
20260503130801 51 176 0.0 0.0 0.00 0.00 0.00 79 1013.0
20260503130703 51 176 0.0 0.0 0.00 0.00 0.00 79 1012.9
20260503130602 51 176 0.0 0.0 0.00 0.00 0.00 79 1012.9
20260503130505 51 176 0.0 0.0 0.00 0.00 0.00 79 1012.9
20260503130448 51 176 0.0 0.0 0.00 0.00 0.00 79 1012.9
20260503130439 51 176 0.0 0.0 0.00 0.00 0.00 79 1012.9
20260503130152 51 176 0.0 0.0 0.00 0.00 0.00 79 1012.9
20260503130142 51 176 0.0 0.0 0.00 0.00 0.00 79 1012.9
20260503110729 55 176 0.0 0.0 0.00 0.00 0.00 72 1012.8
20260503110639 55 176 0.0 0.0 0.00 0.00 0.00 71 1012.8
20260503110533 55 176 0.0 0.0 0.00 0.00 0.00 71 1012.8
20260503110429 55 176 0.0 0.0 0.00 0.00 0.00 71 1012.8
20260503110332 55 176 0.0 0.0 0.00 0.00 0.00 71 1012.8
20260503110229 55 176 0.0 0.0 0.00 0.00 0.00 71 1012.8
20260503110136 55 176 0.0 0.0 0.00 0.00 0.00 70 1012.8
20260503100244 58 176 0.0 0.0 0.00 0.00 0.00 66 1012.6
20260503100232 58 176 0.0 0.0 0.00 0.00 0.00 67 1012.5
20260503090430 59 176 0.0 0.0 0.00 0.00 0.00 63 1012.3
20260503090329 59 176 0.0 0.0 0.00 0.00 0.00 63 1012.3
20260503090233 59 176 0.0 0.0 0.00 0.00 0.00 63 1012.3
20260503090130 59 176 0.0 0.0 0.00 0.00 0.00 63 1012.3
20260503081214 60 176 0.0 0.0 0.00 0.00 0.00 61 1012.0
20260503081159 60 176 0.0 0.0 0.00 0.00 0.00 62 1012.0
20260503081136 60 176 0.0 0.0 0.00 0.00 0.00 62 1012.1
20260503081124 60 176 0.0 0.0 0.00 0.00 0.00 62 1012.0
20260503081115 60 176 0.0 0.0 0.00 0.00 0.00 62 1012.0
20260503081105 60 176 0.0 0.0 0.00 0.00 0.00 62 1012.0
20260503080304 60 176 0.0 0.0 0.00 0.00 0.00 61 1012.0
20260503080203 61 176 0.0 0.0 0.00 0.00 0.00 61 1012.0
20260503072705 62 176 0.0 1.0 0.00 0.00 0.00 60 1012.0
20260503072604 62 176 0.0 1.0 0.00 0.00 0.00 60 1012.0
20260503072513 62 176 0.0 1.0 0.00 0.00 0.00 60 1012.0
20260503072404 62 176 0.0 1.0 0.00 0.00 0.00 60 1012.0
20260503072305 62 174 0.0 1.0 0.00 0.00 0.00 60 1012.0
20260503072203 62 186 0.0 0.0 0.00 0.00 0.00 60 1011.9
20260503072102 62 186 0.0 0.0 0.00 0.00 0.00 60 1011.9
20260503072044 62 186 0.0 0.0 0.00 0.00 0.00 60 1011.9
20260503072023 62 186 0.0 0.0 0.00 0.00 0.00 59 1011.9
20260503071719 62 186 0.0 0.0 0.00 0.00 0.00 58 1011.9
20260503071711 62 186 0.0 0.0 0.00 0.00 0.00 58 1011.9
20260503071701 62 186 0.0 0.0 0.00 0.00 0.00 59 1011.9
20260503071301 62 186 0.0 0.0 0.00 0.00 0.00 59 1011.9
20260503071202 62 186 0.0 0.0 0.00 0.00 0.00 59 1011.9
20260503071104 62 186 0.0 0.0 0.00 0.00 0.00 58 1011.9
20260503071049 62 186 0.0 0.0 0.00 0.00 0.00 58 1011.9
20260503071027 62 186 0.0 0.0 0.00 0.00 0.00 58 1012.0
20260503071016 62 186 0.0 0.0 0.00 0.00 0.00 57 1011.9
20260503070749 62 186 0.0 0.0 0.00 0.00 0.00 58 1011.9
20260503070507 62 186 0.0 0.0 0.00 0.00 0.00 57 1011.8
20260503070457 63 186 0.0 0.0 0.00 0.00 0.00 58 1011.8
20260503070226 63 186 0.0 0.0 0.00 0.00 0.00 57 1011.8
20260503060331 64 216 0.0 1.0 0.00 0.00 0.00 58 1011.6
20260503060230 64 216 0.0 1.0 0.00 0.00 0.00 59 1011.6
20260503060131 65 234 0.0 1.0 0.00 0.00 0.00 58 1011.6
20260503060113 65 234 0.0 1.0 0.00 0.00 0.00 57 1011.5
20260503055103 65 243 1.0 1.0 0.00 0.00 0.00 56 1011.5
20260503054730 65 173 0.0 1.0 0.00 0.00 0.00 58 1011.6
20260503054629 65 173 0.0 1.0 0.00 0.00 0.00 58 1011.6
20260503054531 65 173 0.0 1.0 0.00 0.00 0.00 57 1011.5
20260503054429 65 173 0.0 1.0 0.00 0.00 0.00 57 1011.5
20260503054330 65 173 0.0 1.0 0.00 0.00 0.00 58 1011.5
20260503054228 65 213 0.0 1.0 0.00 0.00 0.00 58 1011.5
20260503054137 65 226 0.0 1.0 0.00 0.00 0.00 58 1011.5
20260503054119 66 226 0.0 2.0 0.00 0.00 0.00 59 1011.5
20260503054110 66 226 0.0 2.0 0.00 0.00 0.00 59 1011.5
20260503054047 66 229 0.0 2.0 0.00 0.00 0.00 59 1011.5
20260503053749 66 240 0.0 2.0 0.00 0.00 0.00 58 1011.5
20260503053429 66 246 0.0 2.0 0.00 0.00 0.00 57 1011.4
20260503053329 66 281 0.0 2.0 0.00 0.00 0.00 57 1011.5
20260503053230 66 222 0.0 2.0 0.00 0.00 0.00 57 1011.5
20260503053128 66 199 0.0 2.0 0.00 0.00 0.00 57 1011.3
20260503053029 66 266 0.0 2.0 0.00 0.00 0.00 56 1011.5
20260503052927 67 266 0.0 2.0 0.00 0.00 0.00 56 1011.4
20260503052818 67 266 0.0 2.0 0.00 0.00 0.00 56 1011.4
20260503052713 67 266 0.0 2.0 0.00 0.00 0.00 56 1011.4
20260503052611 67 266 0.0 2.0 0.00 0.00 0.00 56 1011.4
20260503052510 67 266 0.0 2.0 0.00 0.00 0.00 56 1011.3
20260503052409 67 266 1.0 3.0 0.00 0.00 0.00 56 1011.4
20260503052309 67 263 1.0 3.0 0.00 0.00 0.00 55 1011.4
20260503052208 67 263 1.0 3.0 0.00 0.00 0.00 55 1011.3
20260503052150 67 263 1.0 3.0 0.00 0.00 0.00 56 1011.4
20260503052137 67 279 1.0 3.0 0.00 0.00 0.00 56 1011.3
20260503051804 67 182 1.0 3.0 0.00 0.00 0.00 55 1011.3
20260503051733 67 169 1.0 3.0 0.00 0.00 0.00 56 1011.3
20260503051722 67 157 2.0 3.0 0.00 0.00 0.00 56 1011.3
20260503051402 67 107 1.0 2.0 0.00 0.00 0.00 55 1011.3
20260503051304 67 107 1.0 2.0 0.00 0.00 0.00 56 1011.3
20260503051201 67 78 0.0 2.0 0.00 0.00 0.00 56 1011.3
20260503051103 68 86 1.0 2.0 0.00 0.00 0.00 56 1011.3
20260503051001 68 206 1.0 2.0 0.00 0.00 0.00 55 1011.3
20260503050903 68 205 0.0 2.0 0.00 0.00 0.00 55 1011.3
20260503050801 68 202 0.0 2.0 0.00 0.00 0.00 55 1011.3
20260503050702 68 178 1.0 2.0 0.00 0.00 0.00 55 1011.3
20260503050602 68 178 1.0 2.0 0.00 0.00 0.00 55 1011.3
20260503050503 68 181 0.0 2.0 0.00 0.00 0.00 55 1011.3
20260503050402 68 186 0.0 2.0 0.00 0.00 0.00 55 1011.3
20260503050301 68 191 0.0 2.0 0.00 0.00 0.00 55 1011.4
20260503050225 68 197 0.0 2.0 0.00 0.00 0.00 55 1011.3
20260503050215 69 209 0.0 2.0 0.00 0.00 0.00 55 1011.3
20260503045852 69 242 0.0 2.0 0.00 0.00 0.00 54 1011.3
20260503045754 69 242 0.0 2.0 0.00 0.00 0.00 54 1011.2
20260503045715 69 242 0.0 2.0 0.00 0.00 0.00 54 1011.2
20260503045704 69 248 0.0 2.0 0.00 0.00 0.00 53 1011.2
20260503045339 69 252 1.0 2.0 0.00 0.00 0.00 53 1011.2
20260503045233 69 247 1.0 2.0 0.00 0.00 0.00 53 1011.2
20260503045131 69 239 1.0 2.0 0.00 0.00 0.00 53 1011.2
20260503045031 69 225 1.0 2.0 0.00 0.00 0.00 53 1011.2
20260503045012 69 224 0.0 2.0 0.00 0.00 0.00 52 1011.2
20260503044951 69 207 1.0 2.0 0.00 0.00 0.00 52 1011.2
20260503044706 69 166 1.0 2.0 0.00 0.00 0.00 52 1011.1
20260503044654 69 126 1.0 2.0 0.00 0.00 0.00 52 1011.1
20260503044644 69 119 1.0 2.0 0.00 0.00 0.00 52 1011.1
20260503044619 70 143 0.0 2.0 0.00 0.00 0.00 52 1011.1
20260503044130 70 228 1.0 2.0 0.00 0.00 0.00 51 1011.1
20260503044119 70 231 1.0 2.0 0.00 0.00 0.00 51 1011.1
20260503043800 71 230 0.0 2.0 0.00 0.00 0.00 51 1011.1
20260503043750 71 212 0.0 2.0 0.00 0.00 0.00 50 1011.0
20260503043514 71 210 0.0 2.0 0.00 0.00 0.00 51 1011.0
20260503043452 71 207 1.0 2.0 0.00 0.00 0.00 50 1011.0
20260503043129 71 192 1.0 2.0 0.00 0.00 0.00 49 1010.9
20260503043035 71 190 1.0 2.0 0.00 0.00 0.00 50 1010.9
20260503042928 71 190 1.0 2.0 0.00 0.00 0.00 50 1010.9
20260503042829 71 186 0.0 2.0 0.00 0.00 0.00 48 1010.8
20260503042729 72 74 0.0 2.0 0.00 0.00 0.00 49 1010.9
20260503042629 72 69 0.0 2.0 0.00 0.00 0.00 49 1010.8
20260503042530 72 214 0.0 2.0 0.00 0.00 0.00 49 1010.8
20260503042431 72 217 0.0 2.0 0.00 0.00 0.00 48 1010.8
20260503042352 72 217 0.0 2.0 0.00 0.00 0.00 48 1010.8
20260503042342 72 209 1.0 2.0 0.00 0.00 0.00 48 1010.8
20260503042331 73 211 0.0 2.0 0.00 0.00 0.00 48 1010.7
20260503042315 73 219 0.0 1.0 0.00 0.00 0.00 48 1010.7
20260503041732 73 244 0.0 1.0 0.00 0.00 0.00 47 1010.7
20260503041658 73 245 0.0 1.0 0.00 0.00 0.00 47 1010.7
20260503041649 73 247 0.0 1.0 0.00 0.00 0.00 47 1010.7
20260503041332 74 247 0.0 1.0 0.00 0.00 0.00 45 1010.7
20260503041230 74 248 0.0 1.0 0.00 0.00 0.00 45 1010.6
20260503041133 74 250 0.0 1.0 0.00 0.00 0.00 45 1010.6
20260503041031 74 250 0.0 1.0 0.00 0.00 0.00 45 1010.6
20260503040955 74 250 0.0 1.0 0.00 0.00 0.00 45 1010.6
20260503040931 74 250 0.0 1.0 0.00 0.00 0.00 45 1010.6
20260503040920 74 250 0.0 1.0 0.00 0.00 0.00 44 1010.6
20260503040910 74 250 0.0 2.0 0.00 0.00 0.00 44 1010.6
20260503040859 74 250 0.0 2.0 0.00 0.00 0.00 44 1010.6
20260503040849 74 251 0.0 2.0 0.00 0.00 0.00 43 1010.6
20260503040021 75 278 1.0 2.0 0.00 0.00 0.00 42 1010.5
20260503040008 75 313 1.0 2.0 0.00 0.00 0.00 42 1010.6
20260503035947 75 310 1.0 2.0 0.00 0.00 0.00 42 1010.6
20260503035933 75 289 1.0 2.0 0.00 0.00 0.00 41 1010.6
20260503035703 75 246 0.0 2.0 0.00 0.00 0.00 43 1010.5
20260503035650 75 209 0.0 2.0 0.00 0.00 0.00 43 1010.5
20260503035132 76 159 1.0 2.0 0.00 0.00 0.00 43 1010.4
20260503035121 76 249 0.0 2.0 0.00 0.00 0.00 41 1010.4
20260503034803 76 340 0.0 1.0 0.00 0.00 0.00 40 1010.4
20260503034701 77 340 0.0 1.0 0.00 0.00 0.00 40 1010.4
20260503034604 77 340 0.0 1.0 0.00 0.00 0.00 40 1010.4
20260503034502 77 340 0.0 1.0 0.00 0.00 0.00 39 1010.3
20260503034445 77 340 0.0 1.0 0.00 0.00 0.00 40 1010.4
20260503034422 77 340 0.0 1.0 0.00 0.00 0.00 39 1010.3
20260503034111 78 340 0.0 1.0 0.00 0.00 0.00 40 1010.3
20260503034056 78 340 0.0 1.0 0.00 0.00 0.00 40 1010.2
20260503034044 78 340 0.0 1.0 0.00 0.00 0.00 39 1010.3
20260503034023 78 340 0.0 1.0 0.00 0.00 0.00 40 1010.3
20260503033754 78 340 0.0 1.0 0.00 0.00 0.00 37 1010.2
20260503033446 79 10 0.0 1.0 0.00 0.00 0.00 36 1010.2
20260503033424 79 16 0.0 1.0 0.00 0.00 0.00 35 1010.2
20260503033101 79 31 0.0 1.0 0.00 0.00 0.00 35 1010.2
20260503033004 79 31 0.0 1.0 0.00 0.00 0.00 34 1010.1
20260503032902 79 31 0.0 2.0 0.00 0.00 0.00 34 1010.1
20260503032830 80 31 0.0 2.0 0.00 0.00 0.00 34 1010.1
20260503032820 80 31 0.0 2.0 0.00 0.00 0.00 34 1010.1
20260503032501 80 31 0.0 2.0 0.00 0.00 0.00 34 1009.9
20260503032401 80 31 0.0 2.0 0.00 0.00 0.00 33 1010.1
20260503032304 80 31 0.0 2.0 0.00 0.00 0.00 33 1009.9
20260503032202 80 31 1.0 2.0 0.00 0.00 0.00 33 1009.9
20260503032102 80 31 1.0 2.0 0.00 0.00 0.00 34 1009.9
20260503032002 80 31 0.0 2.0 0.00 0.00 0.00 33 1009.9
20260503031902 80 44 0.0 2.0 0.00 0.00 0.00 33 1009.9
20260503031802 80 33 0.0 2.0 0.00 0.00 0.00 33 1009.8
20260503031700 81 71 0.0 2.0 0.00 0.00 0.00 32 1009.9
20260503031601 81 71 0.0 2.0 0.00 0.00 0.00 32 1009.8
20260503031500 81 69 0.0 2.0 0.00 0.00 0.00 32 1009.8
20260503031401 81 69 0.0 2.0 0.00 0.00 0.00 32 1009.8
20260503031301 81 69 1.0 2.0 0.00 0.00 0.00 32 1009.8
20260503031204 81 69 1.0 2.0 0.00 0.00 0.00 32 1009.8
20260503031100 81 69 1.0 3.0 0.00 0.00 0.00 31 1009.8
20260503031005 81 38 0.0 3.0 0.00 0.00 0.00 31 1009.8
20260503030948 81 352 0.0 3.0 0.00 0.00 0.00 31 1009.8
20260503030927 81 343 0.0 3.0 0.00 0.00 0.00 31 1009.8
20260503030918 81 343 0.0 3.0 0.00 0.00 0.00 31 1009.7
20260503030908 81 343 1.0 3.0 0.00 0.00 0.00 31 1009.7
20260503030857 81 343 1.0 3.0 0.00 0.00 0.00 31 1009.7
20260503030544 82 347 2.0 3.0 0.00 0.00 0.00 31 1009.7
20260503030002 82 10 0.0 2.0 0.00 0.00 0.00 31 1009.6
20260503025902 82 54 0.0 3.0 0.00 0.00 0.00 31 1009.7
20260503025801 82 54 0.0 3.0 0.00 0.00 0.00 30 1009.6
20260503025701 82 60 0.0 3.0 0.00 0.00 0.00 30 1009.6
20260503025600 82 60 1.0 3.0 0.00 0.00 0.00 30 1009.6
20260503025501 82 59 1.0 3.0 0.00 0.00 0.00 30 1009.6
20260503025405 82 69 1.0 4.0 0.00 0.00 0.00 30 1009.6
20260503025335 82 33 1.0 4.0 0.00 0.00 0.00 30 1009.6
20260503025326 82 57 2.0 4.0 0.00 0.00 0.00 30 1009.5
20260503025000 83 49 1.0 4.0 0.00 0.00 0.00 29 1009.6
20260503024902 83 9 1.0 4.0 0.00 0.00 0.00 30 1009.6
20260503024800 83 33 2.0 4.0 0.00 0.00 0.00 29 1009.6
20260503024702 83 75 2.0 4.0 0.00 0.00 0.00 29 1009.6
20260503024601 83 5 2.0 4.0 0.00 0.00 0.00 30 1009.6
20260503024505 83 102 1.0 4.0 0.00 0.00 0.00 29 1009.5
20260503024400 83 53 1.0 5.0 0.00 0.00 0.00 29 1009.5
20260503024300 83 161 2.0 5.0 0.00 0.00 0.00 29 1009.5
20260503024201 83 323 2.0 5.0 0.00 0.00 0.00 29 1009.5
20260503024059 83 36 2.0 5.0 0.00 0.00 0.00 28 1009.5
20260503023959 83 36 2.0 5.0 0.00 0.00 0.00 29 1009.5
20260503023858 83 71 1.0 5.0 0.00 0.00 0.00 28 1009.5
20260503023753 83 55 1.0 5.0 0.00 0.00 0.00 28 1009.5
20260503023653 83 69 2.0 5.0 0.00 0.00 0.00 28 1009.5
20260503023607 83 36 2.0 5.0 0.00 0.00 0.00 28 1009.5
20260503023554 84 104 1.0 4.0 0.00 0.00 0.00 28 1009.4
20260503023543 84 67 1.0 4.0 0.00 0.00 0.00 28 1009.5
20260503023138 84 31 1.0 4.0 0.00 0.00 0.00 27 1009.5
20260503023039 84 19 0.0 4.0 0.00 0.00 0.00 28 1009.4
20260503022937 84 47 1.0 4.0 0.00 0.00 0.00 27 1009.5
20260503022837 84 48 1.0 4.0 0.00 0.00 0.00 27 1009.5
20260503022803 84 53 1.0 4.0 0.00 0.00 0.00 27 1009.5
20260503022752 84 81 2.0 4.0 0.00 0.00 0.00 27 1009.4
20260503022433 84 79 1.0 5.0 0.00 0.00 0.00 27 1009.4
20260503022332 84 56 1.0 5.0 0.00 0.00 0.00 27 1009.4
20260503022257 84 49 1.0 5.0 0.00 0.00 0.00 27 1009.4
20260503022246 84 5 2.0 5.0 0.00 0.00 0.00 27 1009.4
20260503022234 85 352 2.0 6.0 0.00 0.00 0.00 26 1009.4
20260503022002 85 82 2.0 6.0 0.00 0.00 0.00 26 1009.4
20260503021629 85 53 2.0 7.0 0.00 0.00 0.00 26 1009.3
20260503021610 85 87 2.0 7.0 0.00 0.00 0.00 26 1009.4
20260503021558 85 63 2.0 7.0 0.00 0.00 0.00 26 1009.4
20260503021547 85 107 2.0 7.0 0.00 0.00 0.00 26 1009.4
20260503021305 85 50 2.0 7.0 0.00 0.00 0.00 26 1009.3
20260503020934 85 52 3.0 7.0 0.00 0.00 0.00 26 1009.3
20260503020814 85 13 3.0 8.0 0.00 0.00 0.00 25 1009.4
20260503020715 85 109 3.0 8.0 0.00 0.00 0.00 25 1009.4
20260503020612 85 80 2.0 8.0 0.00 0.00 0.00 26 1009.3
20260503020512 85 72 2.0 8.0 0.00 0.00 0.00 26 1009.3
20260503020411 85 74 2.0 8.0 0.00 0.00 0.00 26 1009.3
20260503020316 85 100 2.0 8.0 0.00 0.00 0.00 26 1009.3
20260503020208 85 76 2.0 8.0 0.00 0.00 0.00 26 1009.3
20260503020110 85 36 3.0 10.0 0.00 0.00 0.00 25 1009.3
20260503020027 85 61 2.0 10.0 0.00 0.00 0.00 25 1009.3
20260503020013 85 68 2.0 10.0 0.00 0.00 0.00 26 1009.3
20260503020002 86 98 1.0 10.0 0.00 0.00 0.00 25 1009.3
20260503015938 86 93 2.0 10.0 0.00 0.00 0.00 25 1009.3
20260503015926 86 75 3.0 10.0 0.00 0.00 0.00 25 1009.3
20260503015432 86 5 4.0 10.0 0.00 0.00 0.00 24 1009.3
20260503015103 86 98 3.0 9.0 0.00 0.00 0.00 25 1009.3
20260503015003 86 37 3.0 9.0 0.00 0.00 0.00 24 1009.3
20260503014904 86 89 2.0 7.0 0.00 0.00 0.00 24 1009.2
20260503014805 86 95 3.0 8.0 0.00 0.00 0.00 24 1009.3
20260503014703 86 56 3.0 8.0 0.00 0.00 0.00 25 1009.3
20260503014603 86 76 2.0 8.0 0.00 0.00 0.00 24 1009.2
20260503014503 86 95 3.0 8.0 0.00 0.00 0.00 24 1009.3
20260503014402 86 58 4.0 8.0 0.00 0.00 0.00 24 1009.3
20260503014308 86 123 3.0 8.0 0.00 0.00 0.00 25 1009.3
20260503014202 86 58 3.0 8.0 0.00 0.00 0.00 24 1009.3
20260503014102 86 38 3.0 10.0 0.00 0.00 0.00 24 1009.3
20260503014000 86 74 4.0 10.0 0.00 0.00 0.00 24 1009.3
20260503013902 86 77 4.0 10.0 0.00 0.00 0.00 24 1009.3
20260503013837 86 76 2.0 10.0 0.00 0.00 0.00 24 1009.3
20260503013813 86 63 2.0 10.0 0.00 0.00 0.00 24 1009.3
20260503013803 86 56 4.0 10.0 0.00 0.00 0.00 24 1009.3
20260503013514 86 103 4.0 10.0 0.00 0.00 0.00 24 1009.3
20260503013503 86 72 4.0 10.0 0.00 0.00 0.00 24 1009.3
20260503013103 86 55 4.0 9.0 0.00 0.00 0.00 24 1009.3
20260503013001 87 88 4.0 9.0 0.00 0.00 0.00 25 1009.3
20260503012902 87 60 3.0 9.0 0.00 0.00 0.00 24 1009.3
20260503012802 87 20 3.0 9.0 0.00 0.00 0.00 24 1009.3
20260503012702 87 24 3.0 10.0 0.00 0.00 0.00 24 1009.3
20260503012632 87 77 3.0 10.0 0.00 0.00 0.00 24 1009.3
20260503012621 87 52 3.0 10.0 0.00 0.00 0.00 24 1009.3
20260503012346 87 24 3.0 10.0 0.00 0.00 0.00 24 1009.3
20260503012323 87 93 4.0 11.0 0.00 0.00 0.00 25 1009.3
20260503012002 87 88 4.0 11.0 0.00 0.00 0.00 24 1009.3
20260503011947 87 12 5.0 11.0 0.00 0.00 0.00 24 1009.3
20260503011934 87 80 4.0 11.0 0.00 0.00 0.00 23 1009.3
20260503011604 87 29 3.0 11.0 0.00 0.00 0.00 24 1009.4
20260503011502 87 67 5.0 11.0 0.00 0.00 0.00 24 1009.3
20260503011401 87 79 4.0 11.0 0.00 0.00 0.00 24 1009.4
20260503011302 87 92 3.0 11.0 0.00 0.00 0.00 24 1009.4
20260503011201 87 47 3.0 9.0 0.00 0.00 0.00 25 1009.4
20260503011103 87 60 4.0 9.0 0.00 0.00 0.00 24 1009.4
20260503011003 87 104 5.0 9.0 0.00 0.00 0.00 24 1009.4
20260503010903 87 49 5.0 9.0 0.00 0.00 0.00 24 1009.4
20260503010804 87 94 4.0 7.0 0.00 0.00 0.00 25 1009.4
20260503010701 87 5 3.0 8.0 0.00 0.00 0.00 25 1009.5
20260503010600 87 34 2.0 8.0 0.00 0.00 0.00 24 1009.4
20260503010503 87 33 3.0 8.0 0.00 0.00 0.00 25 1009.5
20260503010404 87 64 3.0 8.0 0.00 0.00 0.00 25 1009.4
20260503010303 87 29 3.0 8.0 0.00 0.00 0.00 24 1009.4
20260503010228 87 5 3.0 8.0 0.00 0.00 0.00 24 1009.4
20260503010025 87 53 4.0 8.0 0.00 0.00 0.00 23 1009.5
20260503010013 87 66 5.0 8.0 0.00 0.00 0.00 24 1009.5
20260503010001 87 72 5.0 8.0 0.00 0.00 0.00 24 1009.5
20260503005936 88 34 5.0 8.0 0.00 0.00 0.00 24 1009.5
20260503005924 88 65 4.0 8.0 0.00 0.00 0.00 24 1009.5
20260503005433 88 103 2.0 8.0 0.00 0.00 0.00 24 1009.4
20260503005103 88 63 2.0 7.0 0.00 0.00 0.00 24 1009.5
20260503005004 88 65 2.0 7.0 0.00 0.00 0.00 25 1009.5
20260503004902 88 61 2.0 7.0 0.00 0.00 0.00 24 1009.5
20260503004801 88 49 2.0 7.0 0.00 0.00 0.00 23 1009.4
20260503004733 88 43 2.0 7.0 0.00 0.00 0.00 24 1009.4
20260503004721 88 33 2.0 9.0 0.00 0.00 0.00 25 1009.4
20260503004357 88 25 3.0 9.0 0.00 0.00 0.00 23 1009.5
20260503004339 88 92 1.0 9.0 0.00 0.00 0.00 24 1009.4
20260503004316 88 80 1.0 11.0 0.00 0.00 0.00 24 1009.5
20260503003956 88 101 2.0 11.0 0.00 0.00 0.00 24 1009.6
20260503003856 88 24 4.0 11.0 0.00 0.00 0.00 24 1009.6
20260503003753 88 69 3.0 11.0 0.00 0.00 0.00 24 1009.6
20260503003656 88 62 2.0 11.0 0.00 0.00 0.00 23 1009.5
20260503003553 88 57 3.0 11.0 0.00 0.00 0.00 24 1009.5
20260503003530 88 49 5.0 11.0 0.00 0.00 0.00 23 1009.5
20260503003518 88 74 4.0 11.0 0.00 0.00 0.00 23 1009.5
20260503003507 88 77 2.0 11.0 0.00 0.00 0.00 25 1009.5
20260503003442 88 57 2.0 7.0 0.00 0.00 0.00 25 1009.5
20260503003206 88 67 2.0 9.0 0.00 0.00 0.00 24 1009.5
20260503003124 88 55 3.0 9.0 0.00 0.00 0.00 24 1009.6
20260503002840 88 90 3.0 9.0 0.00 0.00 0.00 24 1009.6
20260503002608 88 99 3.0 9.0 0.00 0.00 0.00 24 1009.6
20260503002245 88 78 3.0 9.0 0.00 0.00 0.00 24 1009.5
20260503002145 88 96 3.0 9.0 0.00 0.00 0.00 24 1009.5
20260503002044 88 104 3.0 9.0 0.00 0.00 0.00 24 1009.5
20260503001943 88 66 3.0 9.0 0.00 0.00 0.00 23 1009.6
20260503001842 88 96 4.0 9.0 0.00 0.00 0.00 23 1009.5
20260503001741 88 86 6.0 9.0 0.00 0.00 0.00 24 1009.5
20260503001641 88 40 5.0 9.0 0.00 0.00 0.00 24 1009.5
20260503001541 88 71 4.0 9.0 0.00 0.00 0.00 25 1009.5
20260503001435 88 62 4.0 7.0 0.00 0.00 0.00 24 1009.5
20260503001333 88 59 3.0 7.0 0.00 0.00 0.00 24 1009.5
20260503001230 88 123 3.0 7.0 0.00 0.00 0.00 24 1009.6
20260503001129 88 82 3.0 7.0 0.00 0.00 0.00 25 1009.6
20260503001033 88 80 4.0 7.0 0.00 0.00 0.00 25 1009.6
20260503000929 88 91 3.0 7.0 0.00 0.00 0.00 24 1009.5
20260503000832 88 83 2.0 7.0 0.00 0.00 0.00 25 1009.6
20260503000812 88 61 2.0 7.0 0.00 0.00 0.00 25 1009.5
20260503000751 88 30 3.0 7.0 0.00 0.00 0.00 25 1009.6
20260503000430 88 92 3.0 7.0 0.00 0.00 0.00 26 1009.6
20260503000342 88 53 3.0 7.0 0.00 0.00 0.00 27 1009.5
20260503000327 88 345 2.0 5.0 0.00 0.00 0.00 27 1009.5
20260503000303 88 15 2.0 5.0 0.00 0.00 0.00 26 1009.5
20260502235929 88 347 2.0 5.0 0.00 0.00 0.00 26 1009.5
20260502235833 88 315 2.0 5.0 0.00 0.00 0.00 26 1009.5
20260502235815 88 352 3.0 5.0 0.00 0.00 0.00 25 1009.6
20260502235751 88 337 3.0 5.0 0.00 0.00 0.00 26 1009.6
20260502235430 88 5 2.0 7.0 0.00 0.00 0.00 26 1009.6
20260502235331 88 74 3.0 7.0 0.00 0.00 0.00 27 1009.6
20260502235229 88 24 2.0 7.0 0.00 0.00 0.00 26 1009.6
20260502235130 88 64 2.0 7.0 0.00 0.00 0.00 26 1009.7
20260502235034 88 103 2.0 7.0 0.00 0.00 0.00 25 1009.6
20260502234926 88 71 2.0 7.0 0.00 0.00 0.00 26 1009.6
20260502234825 88 72 3.0 7.0 0.00 0.00 0.00 25 1009.7
20260502234725 88 16 4.0 7.0 0.00 0.00 0.00 25 1009.6
20260502234624 88 0 3.0 7.0 0.00 0.00 0.00 25 1009.7
20260502234523 89 74 2.0 7.0 0.00 0.00 0.00 25 1009.6
20260502234455 89 74 2.0 6.0 0.00 0.00 0.00 24 1009.6
20260502234443 89 79 2.0 6.0 0.00 0.00 0.00 25 1009.7
20260502234121 89 126 2.0 7.0 0.00 0.00 0.00 26 1009.7
20260502234021 89 122 1.0 7.0 0.00 0.00 0.00 26 1009.7
20260502233919 88 351 1.0 7.0 0.00 0.00 0.00 26 1009.7
20260502233818 88 102 1.0 7.0 0.00 0.00 0.00 25 1009.7
20260502233718 88 71 0.0 7.0 0.00 0.00 0.00 26 1009.7
20260502233617 88 96 2.0 7.0 0.00 0.00 0.00 26 1009.7
20260502233517 88 77 3.0 7.0 0.00 0.00 0.00 26 1009.7
20260502233420 88 90 4.0 7.0 0.00 0.00 0.00 26 1009.7
20260502233357 88 84 2.0 4.0 0.00 0.00 0.00 26 1009.7
20260502233346 88 57 2.0 5.0 0.00 0.00 0.00 27 1009.7
20260502233026 88 77 1.0 5.0 0.00 0.00 0.00 28 1009.7
20260502232914 88 340 1.0 5.0 0.00 0.00 0.00 28 1009.7
20260502232809 88 30 2.0 5.0 0.00 0.00 0.00 28 1009.8
20260502232710 87 337 2.0 6.0 0.00 0.00 0.00 27 1009.7
20260502232608 87 327 3.0 6.0 0.00 0.00 0.00 26 1009.8
20260502232508 87 331 2.0 6.0 0.00 0.00 0.00 26 1009.8
20260502232453 87 11 3.0 7.0 0.00 0.00 0.00 27 1009.9
20260502232441 87 38 2.0 7.0 0.00 0.00 0.00 26 1009.9
20260502232430 87 26 2.0 7.0 0.00 0.00 0.00 28 1009.9
20260502232407 87 14 3.0 7.0 0.00 0.00 0.00 31 1009.9
20260502232354 87 25 3.0 7.0 0.00 0.00 0.00 28 1009.9
20260502231905 87 26 2.0 7.0 0.00 0.00 0.00 27 1009.9
20260502231842 87 352 4.0 7.0 0.00 0.00 0.00 27 1010.1
20260502231301 87 332 2.0 7.0 0.00 0.00 0.00 28 1010.1
20260502231207 87 65 2.0 5.0 0.00 0.00 0.00 27 1010.1
20260502231102 87 0 2.0 6.0 0.00 0.00 0.00 27 1010.2
20260502231004 87 65 2.0 6.0 0.00 0.00 0.00 28 1010.1
20260502230902 87 5 2.0 6.0 0.00 0.00 0.00 28 1010.1
20260502230803 87 5 0.0 6.0 0.00 0.00 0.00 27 1010.1
20260502230705 87 78 2.0 6.0 0.00 0.00 0.00 26 1010.1
20260502230616 87 78 3.0 6.0 0.00 0.00 0.00 26 1010.1
20260502230604 87 47 3.0 6.0 0.00 0.00 0.00 27 1010.2
20260502230553 87 49 4.0 6.0 0.00 0.00 0.00 28 1010.2
20260502230541 87 19 4.0 6.0 0.00 0.00 0.00 27 1010.3
20260502230530 87 95 3.0 7.0 0.00 0.00 0.00 27 1010.2
20260502230507 87 55 3.0 7.0 0.00 0.00 0.00 27 1010.3
20260502230014 87 0 3.0 7.0 0.00 0.00 0.00 28 1010.3
20260502225700 87 71 3.0 7.0 0.00 0.00 0.00 27 1010.3
20260502225648 87 98 4.0 7.0 0.00 0.00 0.00 27 1010.3
20260502225635 87 74 4.0 7.0 0.00 0.00 0.00 28 1010.4
20260502225048 87 61 2.0 7.0 0.00 0.00 0.00 29 1010.5
20260502225018 87 68 3.0 7.0 0.00 0.00 0.00 27 1010.5
20260502225006 87 67 3.0 7.0 0.00 0.00 0.00 27 1010.5
20260502224649 87 0 1.0 8.0 0.00 0.00 0.00 28 1010.5
20260502224617 87 5 2.0 8.0 0.00 0.00 0.00 28 1010.5
20260502224603 87 64 4.0 8.0 0.00 0.00 0.00 27 1010.5
20260502224242 87 16 2.0 8.0 0.00 0.00 0.00 28 1010.6
20260502224148 87 104 2.0 8.0 0.00 0.00 0.00 28 1010.6
20260502224042 87 84 2.0 8.0 0.00 0.00 0.00 28 1010.6
20260502223942 87 27 3.0 8.0 0.00 0.00 0.00 28 1010.6
20260502223842 87 50 3.0 8.0 0.00 0.00 0.00 28 1010.7
20260502223740 87 69 1.0 11.0 0.00 0.00 0.00 29 1010.7
20260502223723 87 80 2.0 11.0 0.00 0.00 0.00 29 1010.6
20260502223701 87 26 2.0 11.0 0.00 0.00 0.00 28 1010.6
20260502223426 87 32 2.0 11.0 0.00 0.00 0.00 28 1010.6
20260502223414 87 105 2.0 11.0 0.00 0.00 0.00 28 1010.7
20260502223128 87 70 4.0 11.0 0.00 0.00 0.00 28 1010.7
20260502223116 87 18 3.0 11.0 0.00 0.00 0.00 28 1010.7
20260502223103 87 28 3.0 11.0 0.00 0.00 0.00 29 1010.8
20260502222831 87 49 5.0 9.0 0.00 0.00 0.00 28 1010.7
20260502222429 87 122 3.0 9.0 0.00 0.00 0.00 29 1010.7